Location: Oshawa
(43.9000°N, 78.8670°W)
Time: 19:00:40
(UTC-04:00)

Cosmos 1408 Rocket - Visible Passes

Search period start: 27 August 2014 00:00
Search period end: 06 September 2014 00:00
Orbit: 603 x 633 km, 82.6° (Epoch: 26 August)

Date Brightness Start Highest point End Pass type
(mag) Time Alt. Az. Time Alt. Az. Time Alt. Az.
27 Aug 3.6 21:11:12 10° N 21:15:31 57° E 21:18:46 17° SSE visible
27 Aug 6.3 22:50:49 10° NW 22:52:48 13° W 22:54:47 10° WSW visible
28 Aug 3.6 21:28:11 10° N 21:32:32 77° W 21:36:07 15° S visible
29 Aug 4.7 21:45:23 10° NNW 21:49:28 41° W 21:53:30 10° SSW visible
30 Aug 4.4 20:24:45 10° N 20:28:39 31° ENE 20:32:30 10° SE visible
30 Aug 5.8 22:02:55 10° NW 22:06:18 23° W 22:09:40 10° SW visible
31 Aug 3.6 20:41:28 10° N 20:45:46 58° E 20:50:00 10° SSE visible
31 Aug 6.4 22:21:10 10° WNW 22:23:03 13° W 22:24:56 10° WSW visible
01 Sep 3.7 20:58:27 10° NNW 21:02:47 76° W 21:07:05 10° S visible
02 Sep 4.9 21:15:40 10° NNW 21:19:43 40° W 21:23:44 10° SSW visible
03 Sep 6.0 21:33:12 10° NW 21:36:33 22° W 21:39:52 10° SW visible
04 Sep 3.6 20:11:44 10° N 20:16:01 59° E 20:20:15 10° SSE visible
04 Sep 6.6 21:51:30 10° WNW 21:53:17 12° W 21:55:04 10° WSW visible
05 Sep 3.8 20:28:42 10° NNW 20:33:02 74° W 20:37:19 10° S visible
